Tracking 29892 objects as of 21-Nov-2024
HD Live streaming from Space Station
objects crossing your sky now

SL-8 R/B

Track SL-8 R/B now!
10-day predictions


NORAD ID: 6061
Int'l Code: 1972-043B
Perigee: 746.5 km
Apogee: 773.9 km
Inclination: 74.1 °
Period: 99.9 minutes
Semi major axis: 7131 km
RCS: 4.7314 m2 (large)
Launch date: June 23, 1972
Source: Commonwealth of Independent States (former USSR) (CIS)
Launch site: PLESETSK MISSILE AND SPACE COMPLEX (PKMTR)

Note: This is a ROCKET BODY
Your satellite tracking list
Your tracking list is empty




NASA's NSSDC Master Catalog

Two Line Element Set (TLE):
1 06061U 72043B   24325.66102003  .00000499  00000-0  16110-3 0  9997
2 06061  74.0555 206.6589 0019155  12.9113 347.2530 14.41647680748818
Source of the keplerian elements: AFSPC